Weather in Kubei

Ukraine / Odesa District     45°47′37″N   28°44′27″E
temp.,
°C
wind,
m/s
gust,
m/s
humid.,
%
clouds,
%
prec.,
mm/h
press.,
hPa
HPBL,
m
15 august, mon
mon1500:00+21nw33825 0.4 100661
03:00+22nnw367685 0.6 1005170
06:00+21nnw3774100 0.0 1005265
09:00+24nnw4456100 0.1 1005412
12:00+28nnw4440100 0.0 1005974
15:00+31nnw4233100 0.0 10042255
18:00+31n643182 0.0 10032116
21:00+22sw587357 0.9 1006222
16 august, tue
tue1600:00+21w347678 0.1 100683
03:00+20wnw227899 0.1 100633
06:00+19sw33835 0.0 100649
09:00+25sw34575 0.0 1007415
12:00+30sw44385 0.0 10071733
15:00+33ssw552897 0.0 10063096
18:00+32w233050 0.3 10061751
21:00+22ne913708 1.3 1008327
17 august, wed
wed1700:00+21n35735 0.1 1009104
03:00+20n33825 0.1 100856
06:00+20nnw337967 0.0 100838
09:00+25nnw11549 0.0 1009437
12:00+29wnw123840 0.0 10091611
15:00+33w2429100 0.0 10073243
18:00+25sw685412 0.5 1008200
21:00+25wnw365645 1.6 1010167
18 august, thu
thu1800:00+23n3570100 0.0 1009124
03:00+22nnw337566 0.0 100962
06:00+21nnw357915 0.0 101095
09:00+25nnw455950 0.1 1010708
12:00+29nw564216 0.0 10101665
15:00+29nnw674192 0.2 10091802
18:00+28nnw784352 0.0 10091550
21:00+24nw35560 0.0 101090
19 august, fri
fri1900:00+23wnw34605 0.0 100972
03:00+23nw310620 0.0 1009222
06:00+21nw48700 0.0 1009160
09:00+26nnw56500 0.0 1010547
12:00+32n56330 0.0 10091796
15:00+34n56284 0.0 10092745
18:00+34n452747 0.0 10082745
21:00+25sse36567 0.0 1010109